JTC427 KDVT-KBED

Flight info

Callsign JTC427
Flight time N/A
Altitude 39000
Route DVT3 PXR FORPE LALUZ SJN ABQ MIRME ICT BAYLI FWA/N0454F410 RIEKE JHW Q82 PONCT EEGUL ZELKA2
Aircraft CL60/M-SBDE1E2E3FGHIJ1J4J5J7M3RWXYZ/LB1V1D1

Departure

Time 2026-04-14 13:40
Airport Phoenix Deer Valley Airport (KDVT)

Arrival

Time N/A
Airport Laurence G Hanscom Field (KBED)
Time Latitude Longitude Altitude Speed Heading
2026-04-14 13:20 33.68594 -112.08401 1461 ft 0 kts 176°
2026-04-14 13:35 33.68592 -112.08401 1461 ft 1 kts 176°
2026-04-14 13:36 33.68586 -112.08405 1461 ft 0 kts 275°
2026-04-14 13:36 33.68586 -112.08406 1461 ft 0 kts 277°
2026-04-14 13:36 33.68602 -112.08463 1461 ft 4 kts 291°
2026-04-14 13:36 33.68624 -112.08491 1461 ft 3 kts 332°
2026-04-14 13:37 33.68629 -112.08493 1461 ft 0 kts 340°
2026-04-14 13:37 33.68639 -112.08498 1461 ft 8 kts 333°
2026-04-14 13:37 33.68659 -112.08604 1459 ft 14 kts 265°
2026-04-14 13:37 33.68651 -112.08759 1458 ft 17 kts 266°
2026-04-14 13:38 33.68641 -112.08940 1455 ft 21 kts 265°
2026-04-14 13:38 33.68626 -112.09156 1451 ft 25 kts 265°
2026-04-14 13:38 33.68615 -112.09369 1446 ft 12 kts 266°
2026-04-14 13:38 33.68607 -112.09508 1443 ft 8 kts 265°
2026-04-14 13:39 33.68602 -112.09592 1442 ft 1 kts 280°
2026-04-14 13:39 33.68620 -112.09611 1442 ft 3 kts 340°
2026-04-14 13:39 33.68639 -112.09618 1442 ft 0 kts 348°
2026-04-14 13:39 33.68676 -112.09611 1442 ft 6 kts 45°
2026-04-14 13:40 33.68707 -112.09169 1451 ft 103 kts 87°
2026-04-14 13:40 33.68776 -112.07857 1566 ft 146 kts 87°
2026-04-14 13:40 33.68888 -112.06478 1943 ft 146 kts 74°
2026-04-14 13:40 33.69526 -112.05396 2441 ft 152 kts 34°
2026-04-14 13:41 33.70656 -112.04806 2476 ft 165 kts 21°